DL2AMT-9 Weather Reports


Display with metric or nautical units.
time (UTC)temp
F
wind
direction
speed
MPH
gust
MPH
rain 1hr
in
rain 24hr
in
rain mn
in
humidity
%
barometer
mb
20260506134111 81 0.0 0.0 0.00 0.00 0.00 39 960.0
20260506133611 81 0.0 0.0 0.00 0.00 0.00 38 959.9
20260506133111 81 0.0 0.0 0.00 0.00 0.00 39 960.0
20260506132611 81 0.0 0.0 0.00 0.00 0.00 38 960.0
20260506132111 82 0.0 0.0 0.00 0.00 0.00 38 960.1
20260506131557 81 0.0 0.0 0.00 0.00 0.00 39 960.1
20260506131057 81 0.0 0.0 0.00 0.00 0.00 38 960.0
20260506130557 81 0.0 0.0 0.00 0.00 0.00 39 960.0
20260506130057 81 0.0 0.0 0.00 0.00 0.00 39 960.0
20260506125557 81 0.0 0.0 0.00 0.00 0.00 39 960.1
20260506125057 81 0.0 0.0 0.00 0.00 0.00 39 960.0
20260506124557 81 0.0 0.0 0.00 0.00 0.00 38 960.1
20260506124057 81 0.0 0.0 0.00 0.00 0.00 38 960.1
20260506123557 81 0.0 0.0 0.00 0.00 0.00 39 960.1
20260506123057 81 0.0 0.0 0.00 0.00 0.00 39 960.1
20260506122557 81 0.0 0.0 0.00 0.00 0.00 39 960.1
20260506122057 81 0.0 0.0 0.00 0.00 0.00 38 960.1
20260506121557 82 0.0 0.0 0.00 0.00 0.00 38 960.1
20260506121057 82 0.0 0.0 0.00 0.00 0.00 39 960.2
20260506120557 82 0.0 0.0 0.00 0.00 0.00 38 960.1
20260506120057 82 0.0 0.0 0.00 0.00 0.00 39 960.2
20260506115557 82 0.0 0.0 0.00 0.00 0.00 39 960.1
20260506115057 82 0.0 0.0 0.00 0.00 0.00 39 960.0
20260506114557 82 0.0 0.0 0.00 0.00 0.00 39 960.1
20260506114057 82 0.0 0.0 0.00 0.00 0.00 39 960.1
20260506113557 82 0.0 0.0 0.00 0.00 0.00 40 960.0
20260506113057 82 0.0 0.0 0.00 0.00 0.00 40 960.1
20260506112557 82 0.0 0.0 0.00 0.00 0.00 40 960.1
20260506112057 82 0.0 0.0 0.00 0.00 0.00 41 960.1
20260506111557 82 0.0 0.0 0.00 0.00 0.00 42 960.2
20260506111057 81 0.0 0.0 0.00 0.00 0.00 44 960.1
20260506062413 84 0.0 0.0 0.00 0.00 0.00 41 959.8
20260506061049 84 0.0 0.0 0.00 0.00 0.00 39 959.9
20260506060548 84 0.0 0.0 0.00 0.00 0.00 39 959.8
20260505173309 86 0.0 0.0 0.00 0.00 0.00 37 960.7
20260505172809 86 0.0 0.0 0.00 0.00 0.00 37 960.8
20260505172310 86 0.0 0.0 0.00 0.00 0.00 35 960.7
20260505171809 86 0.0 0.0 0.00 0.00 0.00 35 960.7
20260505171309 85 0.0 0.0 0.00 0.00 0.00 35 960.6
20260505170809 85 0.0 0.0 0.00 0.00 0.00 34 960.6
20260505170309 85 0.0 0.0 0.00 0.00 0.00 34 960.6
20260505165809 85 0.0 0.0 0.00 0.00 0.00 34 960.7
20260505165309 85 0.0 0.0 0.00 0.00 0.00 34 960.7
20260505164809 85 0.0 0.0 0.00 0.00 0.00 34 960.7
20260505164309 86 0.0 0.0 0.00 0.00 0.00 35 960.8
20260505163809 86 0.0 0.0 0.00 0.00 0.00 34 960.8
20260505163309 86 0.0 0.0 0.00 0.00 0.00 35 961.0
20260505162809 86 0.0 0.0 0.00 0.00 0.00 33 960.9
20260505162308 86 0.0 0.0 0.00 0.00 0.00 33 961.0
20260505161808 86 0.0 0.0 0.00 0.00 0.00 32 961.1
20260505161308 87 0.0 0.0 0.00 0.00 0.00 32 961.1
20260505160808 88 0.0 0.0 0.00 0.00 0.00 31 961.2
20260505160308 90 0.0 0.0 0.00 0.00 0.00 30 961.2